Location: Lafig�re
(44.4503°N, 4.0357°E)
Time: 15:07:26
(UTC+00:00)

Ariane Rocket - Pass Details

Date: 24 September 2020
Orbit: 760 x 769 km, 98.7° (Epoch: 26 October)

Event Time Altitude Azimuth Distance (km) Brightness Sun altitude
Exits shadow 19:28:05 23° 165° (SSE) 1,567 4.3 -20.3°
Maximum altitude 19:31:16 90° 230° (SW) 772 2.9 -20.8°
Drops below altitude 10° 19:36:24 10° 346° (NNW) 2,316 5.9 -21.7°
Sets 19:38:43 0° 346° (NNW) 3,248 6.7 -22.1°
